Погода в Орловке

Россия / Белгородская область     51°04′50″N   36°21′18″E
темп.,
°C
ветер,
м/с
пор.,
м/с
влажн.,
%
обл.,
%
осадки,
мм/ч
давл.,
гПа
погр.,
м
19 мая, ср
ср1900:00+13ююв48936 0.1 1003180
03:00+11ююв4996100 0.2 1004217
06:00+12ююв4109690 0.5 1005432
09:00+15ююв6879100 0.6 1005938
12:00+18ююв6764100 0.1 10051505
15:00+13ююв5686100 1.1 1006301
18:00+12юв2292100 0.8 1005152
21:00+11вюв3893100 0.8 1004227
20 мая, чт
чт2000:00+11юв3797100 1.9 1004239
03:00+11ююв3599100 4.1 1003206
06:00+11ю4897100 0.9 1003349
09:00+13ююз4691100 1.1 1004511
12:00+13юз5891100 0.1 1006710
15:00+13юз6988100 0.3 1008759
18:00+12юз5990100 0.1 1009632
21:00+11зюз4892100 0.1 1011557
21 мая, пт
пт2100:00+10з489519 0.0 1012338
03:00+8зсз3698100 0.0 1014132
06:00+9з229273 0.0 101587
09:00+14с2275100 0.0 1015419
12:00+17св2259100 0.0 10151163
15:00+18всв3358100 0.0 10151250
18:00+12вюв4690100 1.4 1016206
21:00+12с2388100 1.8 101746
22 мая, сб
сб2200:00+12св368897 0.0 1016110
03:00+11св3892100 0.0 1016171
06:00+12св51193100 0.3 1016344
09:00+12св6129599 0.9 1016399
12:00+15св71082100 0.0 1017591
15:00+18св7973100 0.0 10161144
18:00+17всв61280100 0.0 1013612
21:00+15св61287100 0.0 1013456
23 мая, вс
вс2300:00+13св51098100 0.0 1012273
03:00+12всв3698100 0.3 1011194
06:00+12ссв3498100 0.0 1010135
09:00+17юв3485100 0.1 1009352
12:00+21юз3479100 0.3 1007751
15:00+21зюз3582100 0.5 1007738
18:00+18зюз4885100 0.3 1007308
21:00+15зсз51192100 0.4 1009365